Weather observations for the past three days for
Algona
Metric (Imperial)
Date Time (cdt) Wind (kph) Vis. (km) Weather Sky Cond. Temperature (ºC) Relative Humidity Wind Chill (°C) Heat Index (°C) Pressure Precipitation (cm)
Air Dwpt 6 hour altimeter (cm) sea level (mb) 1 hr 3 hr 6 hr
Max. Min.
07 21:15 Calm 16.09 Fair CLR 12 -5 30% 75.72 0.0
07 20:55 W 6 16.09 Fair CLR 13 -5 28% 75.72 0.0
07 20:35 Calm 16.09 Fair CLR 15 -6 23% 75.69 0.0
07 20:15 Calm 16.09 Fair CLR 16 -6 22% 75.69 0.0
07 19:55 NW 9 16.09 Fair CLR 17 -6 20% 75.69 0.0
07 19:35 NW 11 16.09 Fair CLR 17 -5 22% 75.69 0.0
07 19:15 NW 17 14.48 Fair CLR 17 -5 22% 75.69 0.0
07 18:55 NW 19 16.09 Fair CLR 17 -5 22% 75.69 0.0
07 18:35 NW 13 G 26 16.09 Fair CLR 17 -5 22% 75.69 0.0
07 18:15 NW 17 G 26 16.09 Fair CLR 17 -5 22% 75.69 0.0
07 17:55 Vrbl 11 G 28 16.09 Fair CLR 17 -5 22% 75.69 0.0
07 17:35 NW 19 G 31 16.09 Fair CLR 17 -5 22% 75.69 0.0
07 17:15 NW 15 16.09 A Few Clouds FEW095 17 -6 20% 75.69 0.0
07 16:55 W 20 16.09 Fair CLR 18 -4 22% 75.72 0.0
07 16:35 W 15 G 26 14.48 Fair CLR 18 -4 22% 75.72 0.0
07 16:15 W 19 G 28 16.09 Fair CLR 17 -5 22% 75.72 0.0
07 15:55 W 15 G 30 16.09 Fair CLR 17 -5 22% 75.74 0.0
07 15:35 W 19 16.09 Fair CLR 17 -4 24% 75.74 0.0
07 15:15 W 13 G 22 14.48 Fair CLR 17 -4 24% 75.77 0.0
07 14:35 Calm 16.09 Fair CLR 16 -5 23% 75.77 0.0
07 14:15 NW 20 14.48 Fair CLR 16 -5 23% 75.79 0.0
07 13:55 Vrbl 9 G 30 14.48 Fair CLR 16 -5 23% 75.79 0.0
07 13:35 N 19 G 30 16.09 Fair CLR 15 -4 27% 75.79 0.0
07 13:15 Vrbl 11 G 28 12.87 Fair CLR 15 -3 29% 75.79 0.0
07 12:55 NE 19 16.09 Fair CLR 15 -2 31% 75.79 0.0
07 12:15 Vrbl 9 16.09 Fair CLR 14 -2 33% 75.84 0.0
07 11:55 NE 13 G 22 14.48 Fair CLR 14 -2 33% 75.87 0.0
07 11:35 Vrbl 7 G 20 16.09 Fair CLR 13 -3 33% 75.87 0.0
07 10:55 NE 11 G 26 16.09 Fair CLR 13 -2 36% 75.87 0.0
07 10:35 NE 17 16.09 Fair CLR 12 -1 41% 75.84 0.0
07 10:15 NE 15 G 28 16.09 Fair CLR 11 -2 41% 75.87 0.0
07 09:55 NE 19 16.09 Fair CLR 11 -1 44% 75.87 0.0
07 09:35 NE 19 16.09 Fair CLR 10 -2 43% 8 75.87 0.0
07 09:15 NE 19 16.09 Fair CLR 9 -2 46% 7 75.84 0.0
07 08:55 E 19 16.09 Fair CLR 9 -3 43% 7 75.87 0.0
07 08:35 E 15 16.09 Fair CLR 8 -3 46% 6 75.87 0.0
07 08:15 NE 17 16.09 Fair CLR 7 -2 53% 4 75.87 0.0
07 07:55 E 13 14.48 Fair CLR 6 -2 57% 4 75.87 0.0
07 07:35 NE 11 16.09 Fair CLR 4 -2 65% 2 75.87 0.0
07 07:15 N 15 14.48 Fair CLR 3 -3 65% -0 75.9 0.0
07 06:55 N 20 G 31 16.09 A Few Clouds FEW085 3 -3 65% -1 75.87 0.0
07 06:35 SE 6 16.09 Mostly Cloudy BKN095 3 -3 65% 75.79 0.0
07 05:55 SE 7 16.09 Fair CLR 2 -3 70% 0 75.79 0.0
07 05:35 E 13 16.09 A Few Clouds FEW050 FEW055 2 -3 70% -1 75.79 0.0
07 05:15 SE 11 16.09 Mostly Cloudy FEW049 SCT060 BKN070 3 -3 65% 0 75.82 0.0
07 04:55 Calm 16.09 Mostly Cloudy FEW070 BKN090 3 -3 65% 75.87 0.0
07 04:35 Calm 16.09 Mostly Cloudy BKN095 3 -3 65% 75.87 0.0
07 04:15 SE 9 16.09 Overcast BKN100 OVC120 3 -3 65% 1 75.9 0.0
07 03:55 NE 9 16.09 Mostly Cloudy BKN120 3 -3 65% 1 75.9 0.0
07 03:35 NE 11 16.09 Partly Cloudy SCT090 SCT120 3 -3 65% 0 75.92 0.0
07 03:15 NE 11 16.09 Overcast FEW070 BKN090 OVC120 4 -3 61% 2 75.95 0.0
07 02:55 N 11 16.09 Overcast SCT070 BKN090 OVC120 5 -3 57% 3 75.95 0.0
07 02:35 SE 13 16.09 Overcast FEW070 BKN095 OVC120 5 -3 57% 2 75.95 0.0
07 02:15 SE 13 16.09 Overcast OVC110 6 -4 49% 4 75.97 0.0
07 01:55 SE 13 16.09 Overcast OVC110 6 -4 49% 4 76 0.0
07 01:35 SE 13 16.09 Overcast OVC110 5 -4 53% 2 76 0.0
07 01:15 SE 15 16.09 Mostly Cloudy BKN110 5 -3 57% 2 76 0.0
07 00:55 SE 15 16.09 Overcast OVC100 4 -3 61% 1 76.02 0.0
07 00:35 SE 11 16.09 Overcast OVC100 5 -4 53% 3 76.05 0.0
07 00:15 SE 11 16.09 Mostly Cloudy BKN100 5 -4 53% 3 76.05 0.0
06 23:35 E 9 16.09 Fair CLR 5 -5 49% 3 76.07 0.0
06 23:15 E 11 16.09 Fair CLR 5 -4 53% 3 76.07 0.0
06 22:55 E 9 16.09 Fair CLR 5 -4 53% 3 76.07 0.0
06 22:35 E 9 16.09 A Few Clouds FEW070 6 -4 49% 4 76.1 0.0
06 22:15 E 9 16.09 Partly Cloudy SCT075 SCT085 6 -4 49% 4 76.1 0.0
06 21:55 NE 7 16.09 Mostly Cloudy FEW070 BKN090 7 -4 46% 6 76.1 0.0
06 21:35 E 9 16.09 Overcast SCT070 BKN080 OVC090 7 -5 43% 5 76.1 0.0
06 20:55 N 9 16.09 Mostly Cloudy FEW075 BKN085 7 -6 39% 5 76.1 0.0
06 20:35 N 7 0.00 Mostly Cloudy SCT070 BKN090 10 -6 32% 9 76.07 0.0
06 20:15 Calm 16.09 Mostly Cloudy FEW065 BKN090 10 -6 32% 76.07 0.0
06 19:55 NW 9 14.48 Mostly Cloudy BKN085 11 -6 30% 76.1 0.0
06 19:35 NW 15 16.09 Partly Cloudy SCT090 11 -5 32% 76.1 0.0
06 19:15 W 22 16.09 Partly Cloudy FEW075 SCT085 11 -5 32% 76.1 0.0
06 18:55 NW 20 G 35 16.09 Partly Cloudy FEW075 SCT090 12 -5 30% 76.12 0.0
06 18:35 NW 26 16.09 Partly Cloudy FEW070 SCT090 11 -5 32% 76.12 0.0
06 18:15 W 22 16.09 Partly Cloudy FEW070 SCT085 11 -5 32% 76.12 0.0
06 17:55 NW 26 16.09 A Few Clouds FEW070 12 -6 28% 76.15 0.0
06 17:35 NW 22 16.09 A Few Clouds FEW070 11 -6 30% 76.15 0.0
06 17:15 NW 28 G 37 16.09 Partly Cloudy SCT070 11 -6 30% 76.15 0.0
06 16:55 W 24 G 39 16.09 A Few Clouds FEW070 12 -5 30% 76.15 0.0
06 16:35 NW 24 G 35 16.09 Fair CLR 11 -6 30% 76.17 0.0
06 16:15 W 28 G 48 16.09 A Few Clouds FEW070 12 -5 30% 76.2 0.0
06 15:55 NW 19 G 43 16.09 A Few Clouds FEW065 11 -5 32% 76.2 0.0
06 15:35 NW 24 G 35 16.09 Partly Cloudy SCT065 11 -5 32% 76.23 0.0
06 15:15 NW 35 G 44 16.09 Partly Cloudy and Breezy SCT065 11 -5 32% 76.25 0.0
06 14:55 W 24 G 43 16.09 Partly Cloudy SCT060 11 -4 35% 76.25 0.0
06 14:35 W 20 G 44 16.09 Partly Cloudy SCT060 10 -5 35% 8 76.28 0.0
06 14:15 NW 26 G 41 16.09 Partly Cloudy SCT060 10 -5 35% 7 76.28 0.0
06 13:55 NW 26 16.09 Partly Cloudy SCT060 9 -6 34% 6 76.28 0.0
06 13:35 NW 26 G 37 14.48 Partly Cloudy SCT060 9 -5 37% 6 76.3 0.0
06 13:15 NW 24 G 35 16.09 Partly Cloudy SCT060 8 -6 37% 5 76.3 0.0
06 12:55 NW 22 G 39 16.09 Partly Cloudy SCT055 SCT065 8 -6 37% 5 76.3 0.0
06 12:35 NW 24 G 35 16.09 Partly Cloudy SCT060 8 -6 37% 5 76.33 0.0
06 12:15 NW 24 G 43 16.09 A Few Clouds FEW060 8 -6 37% 5 76.33 0.0
06 11:55 NW 22 G 39 16.09 Partly Cloudy SCT060 8 -6 37% 5 76.33 0.0
06 11:35 NW 24 G 41 16.09 A Few Clouds FEW060 FEW070 8 -6 37% 5 76.33 0.0
06 11:15 NW 20 G 39 16.09 Fair CLR 7 -5 43% 4 76.33 0.0
06 10:55 NW 24 G 35 16.09 Fair CLR 7 -5 43% 4 76.3 0.0
06 10:35 NW 26 16.09 A Few Clouds FEW050 7 -6 39% 3 76.3 0.0
06 10:15 NW 26 16.09 Partly Cloudy SCT049 7 -5 43% 3 76.33 0.0
06 09:55 W 20 G 33 16.09 Fair CLR 7 -4 46% 4 76.3 0.0
06 09:35 NW 19 16.09 A Few Clouds FEW070 7 -4 46% 4 76.3 0.0
06 09:15 NW 22 16.09 Partly Cloudy SCT070 6 -5 46% 2 76.3 0.0
06 08:55 NW 15 16.09 Partly Cloudy SCT070 6 -5 46% 3 76.28 0.0
06 08:35 NW 15 16.09 Fair CLR 5 -4 53% 2 76.28 0.0
06 08:15 NW 17 16.09 Partly Cloudy SCT065 5 -4 53% 2 76.28 0.0
06 07:55 NW 13 16.09 Overcast OVC065 5 -4 53% 2 76.28 0.0
06 07:35 NW 13 16.09 Overcast OVC065 4 -4 56% 1 76.25 0.0
06 07:15 NW 9 16.09 Overcast OVC065 4 -4 56% 2 76.23 0.0
06 06:55 NW 7 16.09 Overcast OVC065 3 -3 65% 1 76.2 0.0
06 06:35 NW 9 16.09 Overcast OVC065 2 -3 70% -0 76.2 0.0
06 06:15 NW 7 16.09 Overcast OVC065 2 -4 65% 0 76.17 0.0
06 05:55 NW 9 16.09 Overcast OVC065 1 -4 70% -2 76.17 0.0
06 05:35 NW 9 16.09 Mostly Cloudy BKN065 0 -5 69% -3 76.15 0.0
06 05:15 NW 7 16.09 A Few Clouds FEW065 1 -5 65% -1 76.12 0.0
06 04:55 NW 9 16.09 Fair CLR 1 -5 65% -2 76.12 0.0
06 04:35 N 7 16.09 Mostly Cloudy FEW060 BKN075 1 -5 65% -1 76.12 0.0
06 04:15 NW 9 16.09 Overcast OVC075 2 -5 60% -0 76.12 0.0
06 03:55 NW 11 16.09 Partly Cloudy SCT075 2 -5 60% -1 76.12 0.0
06 03:35 NW 9 16.09 Fair CLR 2 -5 60% -0 76.12 0.0
06 03:15 NW 9 16.09 Fair CLR 2 -5 60% -0 76.1 0.0
06 02:55 NW 9 16.09 Fair CLR 3 -5 56% 1 76.1 0.0
06 02:35 NW 11 16.09 Fair CLR 3 -5 56% 0 76.07 0.0
06 02:15 NW 9 0.00 Fair CLR 4 -5 52% 2 76.07 0.0
06 01:55 NW 11 16.09 Fair CLR 3 -5 56% 0 76.1 0.0
06 01:35 NW 11 16.09 Fair CLR 3 -5 56% 0 76.1 0.0
06 01:15 N 11 16.09 Fair CLR 4 -5 52% 2 76.07 0.0
06 00:55 N 13 16.09 Fair CLR 4 -5 52% 1 76.07 0.0
06 00:35 N 13 16.09 Fair CLR 4 -5 52% 1 76.05 0.0
06 00:15 N 11 16.09 Fair CLR 5 -5 49% 3 76.05 0.0
05 23:55 N 15 16.09 Fair CLR 6 -5 46% 3 76.02 0.0
05 23:35 N 15 16.09 Fair CLR 6 -5 46% 3 76.02 0.0
05 23:15 N 15 16.09 Partly Cloudy SCT075 6 -5 46% 3 76 0.0
05 22:55 N 13 16.09 Mostly Cloudy SCT065 BKN075 6 -6 42% 4 76 0.0
05 22:35 NW 11 16.09 Mostly Cloudy BKN075 6 -6 42% 4 76.02 0.0
05 22:15 NW 9 16.09 Partly Cloudy SCT075 6 -6 42% 4 76 0.0
05 21:55 N 11 16.09 A Few Clouds FEW080 7 -7 37% 5 76 0.0
05 21:35 NW 15 16.09 Mostly Cloudy BKN080 8 -7 34% 6 75.97 0.0
05 21:15 NW 15 16.09 Overcast OVC075 8 -6 37% 6 75.95 0.0
05 20:55 NW 19 16.09 Overcast OVC080 9 -6 34% 7 75.95 0.0
05 20:35 NW 26 16.09 Overcast OVC080 9 -6 34% 6 75.92 0.0
05 20:15 N 28 16.09 Mostly Cloudy BKN080 10 -6 32% 7 75.9 0.0
05 19:55 NW 28 16.09 Mostly Cloudy BKN080 10 -6 32% 7 75.87 0.0
05 19:35 NW 26 16.09 Mostly Cloudy BKN080 10 -6 32% 7 75.87 0.0
05 19:15 NW 26 G 37 16.09 Overcast OVC080 11 -6 30% 75.84 0.0
05 18:55 NW 20 G 33 16.09 Mostly Cloudy BKN075 BKN085 11 -6 30% 75.84 0.0
05 18:35 NW 26 G 37 16.09 Mostly Cloudy BKN070 11 -6 30% 75.82 0.0
05 18:15 N 24 G 33 16.09 Mostly Cloudy BKN075 11 -6 30% 75.82 0.0
05 17:55 NW 22 G 33 16.09 A Few Clouds FEW075 11 -7 28% 75.82 0.0
05 17:35 N 20 G 31 16.09 Partly Cloudy SCT075 11 -6 30% 75.82 0.0
05 17:15 NW 22 G 33 16.09 A Few Clouds FEW070 12 -6 28% 75.82 0.0
05 16:55 NW 22 G 37 16.09 A Few Clouds FEW070 12 -6 28% 75.82 0.0
05 16:35 N 19 G 41 16.09 Mostly Cloudy BKN070 12 -5 30% 75.82 0.0
05 16:15 N 20 G 39 16.09 Partly Cloudy SCT070 11 -6 30% 75.82 0.0
05 15:55 NW 19 G 30 16.09 A Few Clouds FEW070 11 -6 30% 75.82 0.0
05 15:35 NW 20 G 30 16.09 Partly Cloudy SCT070 11 -6 30% 75.82 0.0
05 15:15 NW 28 G 41 16.09 Partly Cloudy SCT070 12 -5 30% 75.84 0.0
05 14:55 NW 22 G 37 16.09 Partly Cloudy SCT070 12 -5 30% 75.84 0.0
05 14:35 N 28 16.09 Mostly Cloudy BKN065 BKN075 12 -5 30% 75.84 0.0
05 14:15 W 20 16.09 Partly Cloudy SCT065 12 -4 33% 75.84 0.0
05 13:55 NW 19 16.09 Mostly Cloudy BKN065 11 -5 32% 75.87 0.0
05 13:35 NW 13 G 28 16.09 Partly Cloudy SCT065 12 -4 33% 75.87 0.0
05 13:15 N 13 G 31 16.09 Partly Cloudy SCT065 11 -5 32% 75.87 0.0
05 12:55 NW 19 G 30 16.09 A Few Clouds FEW060 10 -4 37% 8 75.87 0.0
05 12:35 W 19 G 30 16.09 A Few Clouds FEW060 11 -4 35% 75.9 0.0
05 12:15 NW 17 G 28 16.09 A Few Clouds FEW060 10 -4 37% 8 75.9 0.0
05 11:55 NW 19 16.09 Fair CLR 10 -5 35% 8 75.87 0.0
05 11:35 NW 20 16.09 A Few Clouds FEW060 10 -4 37% 8 75.87 0.0
05 11:15 Vrbl 11 G 26 16.09 A Few Clouds FEW060 9 -4 40% 8 75.87 0.0
05 10:55 NW 19 16.09 A Few Clouds FEW050 9 -3 43% 7 75.87 0.0
05 10:35 NW 19 16.09 Fair CLR 10 -4 37% 8 75.87 0.0
05 10:15 NW 15 G 28 16.09 Fair CLR 10 -4 37% 8 75.84 0.0
05 09:55 NW 19 G 30 16.09 A Few Clouds FEW049 10 -3 40% 8 75.87 0.0
05 09:35 NW 11 16.09 Fair CLR 10 -2 43% 9 75.84 0.0
05 09:15 NW 13 16.09 Fair CLR 9 -1 50% 7 75.82 0.0
05 08:55 N 9 16.09 Fair CLR 8 -2 50% 7 75.82 0.0
05 08:15 N 15 16.09 Fair CLR 8 -2 50% 6 75.79 0.0
05 07:55 NW 9 16.09 Fair CLR 7 -2 53% 5 75.79 0.0
05 07:35 NW 11 16.09 Fair CLR 6 -1 61% 4 75.79 0.0
05 07:15 W 9 16.09 Fair CLR 4 -2 65% 2 75.77 0.0
05 06:55 W 7 16.09 Fair CLR 3 -2 70% 1 75.77 0.0
05 06:35 SW 9 14.48 Fair CLR 1 -3 75% -2 75.74 0.0
05 06:15 Calm 16.09 Fair CLR 1 -4 70% 75.72 0.0
05 05:55 W 6 16.09 Fair CLR 2 -4 65% 75.69 0.0
05 05:35 W 11 16.09 Fair CLR 2 -4 65% -1 75.67 0.0
05 04:55 NW 13 16.09 Fair CLR 3 -4 60% 0 75.64 0.0
05 04:35 NW 13 16.09 Fair CLR 4 -4 56% 1 75.64 0.0
05 04:15 NW 15 16.09 Fair CLR 5 -4 53% 2 75.64 0.0
05 03:55 NW 13 16.09 Fair CLR 6 -4 49% 4 75.64 0.0
05 03:35 NW 15 16.09 Fair CLR 6 -4 49% 3 75.62 0.0
05 03:15 NW 17 16.09 Fair CLR 6 -4 49% 3 75.62 0.0
05 02:55 NW 11 16.09 Fair CLR 5 -4 53% 3 75.62 0.0
05 02:35 W 11 16.09 Fair CLR 5 -3 57% 3 75.62 0.0
05 02:15 NW 11 16.09 Fair CLR 6 -3 53% 4 75.62 0.0
05 01:55 NW 9 16.09 Fair CLR 7 -3 49% 5 75.59 0.0
05 01:35 NW 9 16.09 Fair CLR 8 -3 46% 7 75.59 0.0
05 01:15 NW 9 16.09 Fair CLR 8 -3 46% 7 75.59 0.0
05 00:55 NW 9 16.09 Fair CLR 8 -3 46% 7 75.62 0.0
05 00:35 N 9 16.09 Fair CLR 8 -3 46% 7 75.59 0.0
05 00:15 N 11 16.09 Fair CLR 8 -3 46% 6 75.59 0.0
04 23:55 N 11 16.09 Fair CLR 9 -3 43% 8 75.59 0.0
04 23:35 N 13 16.09 Fair CLR 9 -4 40% 7 75.59 0.0
04 23:15 N 11 16.09 Fair CLR 9 -4 40% 8 75.59 0.0
04 22:55 N 17 16.09 Fair CLR 10 -4 37% 8 75.59 0.0
04 22:15 N 17 16.09 Fair CLR 11 -3 38% 75.57 0.0
04 21:55 NW 19 G 28 16.09 Fair CLR 11 -3 38% 75.57 0.0
04 21:35 NW 20 G 31 16.09 Fair CLR 11 -3 38% 75.57 0.0
Date Time (cdt) Wind (kph) Vis. (km) Weather Sky Cond. Air Dwpt Max. Min. Relative Humidity Wind Chill (°C) Heat Index (°C) altimeter (cm) sea level (mb) 1 hr 3 hr 6 hr
6 hour
Temperature (ºC) Pressure Precipitation (cm)